Location: Saint Louis
(38.6272°N, 90.1978°W)
Time: 21:05:23
(UTC-05:00)

ISS - Pass Details

Date: 25 June 2013
Orbit: 402 x 404 km, 51.6° (Epoch: 27 May)

Event Time Altitude Azimuth Distance (km) Brightness Sun altitude
Rises 20:57:46 0° 305° (NW) 2,320 3.6 -5.5°
Reaches altitude 10° 20:59:53 10° 302° (WNW) 1,456 1.4 -5.8°
Maximum altitude 21:03:05 58° 222° (SW) 472 -3.0 -6.3°
Drops below altitude 10° 21:06:16 10° 142° (SE) 1,444 -1.2 -6.8°
Enters shadow 21:06:34 - 142° (SE) 1,566 -1.0 -6.8°
